Regional Weather Roundup
Issued by NWS Newport/Morehead, NC

Home | Current Version | Previous Version | Text Only | Print | Product List | Glossary On
Versions: 1 2 3 4 5 6 7 8 9 10 11 12 13 14 15 16 17 18 19 20 21 22 23 24 25 26 27 28 29 30 31 32 33 34 35 36 37 38 39 40 41 42 43 44 45 46 47 48 49 50
000
ASUS42 KMHX 261222
RWRMHX
WEATHER ROUNDUP FOR EASTERN NORTH CAROLINA
NATIONAL WEATHER SERVICE NEWPORT/MOREHEAD CITY NC
700 AM EST MON JAN 26 2015

NOTE: "FAIR" INDICATES FEW OR NO CLOUDS BELOW 12,000 FEET
WITH NO SIGNIFICANT WEATHER AND/OR OBSTRUCTIONS TO VISIBILITY

NCZ015>017-031-032-045>047-102-103-261300-
NORTH COAST

CITY           SKY/WX    TMP DP  RH WIND       PRES   REMARKS
EDENTON        CLOUDY    39  38  96 CALM      29.71S
ELIZABETH CITY CLOUDY    42  38  85 CALM      29.72F
KITTY HAWK     CLOUDY    47  44  91 NE3       29.69F
MANTEO         CLOUDY    46  43  87 NE5       29.70F

$$

NCZ045>047-081-094-103-104-261300-
CENTRAL COAST

CITY           SKY/WX    TMP DP  RH WIND       PRES   REMARKS
FRISCO         CLOUDY    49  47  93 W3        29.70F
SWANQUARTER    NOT AVBL

$$

NCZ095-097-098-100-101-261300-
SOUTHERN COAST

CITY           SKY/WX    TMP DP  RH WIND       PRES   REMARKS
BEAUFORT       MOCLDY    40  39  97 CALM      29.70S
CEDAR ISLAND   NOT AVBL
JACKSONVILLE   CLOUDY    39  38  96 CALM      29.67F
PINEY ISLAND     N/A    N/A N/A N/A MISG      29.70S
WILMINGTON     CLOUDY    49  45  86 SW7       29.67F


$$

NCZ011>013-027>030-043-044-078>080-089-090>093-098-261300-
COASTAL PLAIN

CITY           SKY/WX    TMP DP  RH WIND       PRES   REMARKS
AHOSKIE        CLOUDY    36  34  94 CALM      29.73R
CLINTON        MOCLDY    39  39  99 CALM      29.68F
ELIZABETHTOWN  MOCLDY    41  40  95 SW3       29.67F
GOLDSBORO      MOCLDY    37  37 100 CALM      29.67S
GREENVILLE     CLOUDY    37  37 100 CALM      29.73S
HAVELOCK       MOCLDY    37  35  92 E3        29.71S
KENANSVILLE    CLOUDY    36  36 100 CALM      29.69S FOG
KINSTON        CLOUDY    37  37 100 CALM      29.69F
NEW BERN       CLOUDY    38  35  89 CALM      29.70S
RICHLANDS      CLOUDY    37  36  93 CALM      29.69F
ROCKY MOUNT    MOCLDY    36  35  96 CALM      29.70F
WASHINGTON     CLOUDY    38  37  97 N3        29.70S
WHITEVILLE     CLOUDY    45  42  90 SW3       29.67F

$$

AMZ130-135-150-152-154-156-158-170-250-252-270-ANZ085-086-088-633-658-670-261300-
MARINE OBSERVATIONS

STATION/POSITION TIME  TEMP    WIND        PRES    WAVE   SWELL
                       AIR SEA DIR/SP/G            HT/PER HT/PER
                 (UTC) (F)     (DEG/KT/KT) (MB)    (FT/S) (FT/S)
CHESAPEAKE LIGHT 1200   46      70/ 14/ 14 1007.0
64 E VA BEACH    1200   53 52   70/ 12/ 16 1005.9    3/ 8   3/ 8
DUCK             1200   45 44   40/  7/  7 1005.2
2 E DUCK         1200      43                N/A     2/10
10 NE DUCK       1200      44                N/A     2/ 8   2/11
OREGON INLET     1200   47 46   60/  5/  6 1005.4
13E OREGON INLT  1200      46                N/A     3/ 8   2/11
HATTERAS CG      1200   52 55  230/  3/  3 1005.8
DIAMOND BUOY     1200   58 69  280/ 14/ 17 1005.4    3/ 8   2/ 8
17 S OCRACOKE    NOT AVBL
CAPE LOOKOUT     1200   50     360/  5/  5 1005.5
BEAUFORT LAB     1200   45 50   20/  2/  3 1004.5
27 SE WRIGHTSVLE NOT AVBL
5 SE WRIGHTSVLE  1200   53 51  250/ 10/ 12 1004.7
225 S CAPE HAT   1145   69 72  210/ 23/ 29 1007.5    5/ 5   2/ 9
41 SE CHARLESTON 1200   60 69  260/ 19/ 23 1004.8    7/ 7   2/15

$$


USA.gov is the U.S. government's official web portal to all federal, state and local government web resources and services.